User: anonymous   Login
Location: Unspecified
(0.0000°N, 0.0000°E)
Time: 14:55:02
(UTC+00:00)
Language:

VELOX 1 - Orbit

View from above orbital plane
View from above orbital plane
View from above satellite
View from above satellite

Ground track
Ground track

The orbit data is extracted from the following two-line orbital elements,

1 40057U 14034E   19140.55910291  .00000327  00000-0  53282-4 0  9991
2 40057  98.2295 263.0245 0010364 334.2779  25.7907 14.77648368263469
Epoch (UTC): 20 May 2019 13:25:06
Eccentricity: 0.0010364
inclination: 98.2295°
perigee height: 629 km
apogee height: 644 km
right ascension of ascending node: 263.0245°
argument of perigee: 334.2779°
revolutions per day: 14.77648368
mean anomaly at epoch: 25.7907°
orbit number at epoch: 26346

The dashed part of the orbit path shows where the satellite is in the earth's shadow,  

DLR